Home   Weather   Winchester   Past weeks

Flag for United Kingdom Past Weather in Winchester, England, United Kingdom — Yesterday and Last 2 Weeks

Now
32 °F

Dense fog.


Feels Like: 32 °F
Forecast: N/A
Wind: 1 mph from Northeast

Location: Middle Wallop

Current Time: Jan 24, 2017 at 9:52:53 pm

Latest Report: Jan 24, 2017 at 8:50 pm


Visibility: 0 mi

Pressure: 30.36 "Hg

Humidity: 100%

Dew Point: 32 °F

Location of WinchesterLocation

Past Weather in Winchester — Graph

°F

Winchester Temperature Yesterday

Maximum temperature yesterday: 36 °F (at 1:50 pm)
Minimum temperature yesterday: 25 °F (at 1:50 am)
Average temperature yesterday: 31 °F

High & Low Weather Summary for the Past Weeks

 TemperatureHumidityPressure
High52 °F (Jan 11, 5:50 am)100% (Jan 10, 8:50 pm)30.66 "Hg (Jan 10, 8:50 pm)
Low23 °F (Jan 22, 7:50 am)34% (Jan 19, 1:50 pm)29.36 "Hg (Jan 12, 3:50 pm)
Average37 °F85%30.23 "Hg
* Reported Jan 9 7:50 pm — Jan 24 7:50 pm, Winchester, Weather by CustomWeather, © 2017

Note: Actual official high and low records may vary slightly from our data, if they occured in-between our weather recording intervals... More about our weather records

Advertising

Winchester Weather History for the Previous 24 Hours

Scroll right to see more
 ConditionsComfort  
Time TempWeatherWind HumidityBarometerVisibility
7:50 pm
Tue, Jan 24
32 °FDense fog.2 mph100%30.36 "Hg0 mi
6:50 pm36 °FPassing clouds.1 mph93%30.36 "Hg0 mi
5:50 pm37 °FPassing clouds.2 mph100%30.36 "Hg1 mi
4:50 pm39 °FSnow. Fog.3 mph93%30.33 "Hg4 mi
3:50 pm41 °FFog.5 mph93%30.33 "Hg4 mi
2:50 pm41 °FPartly sunny.3 mph93%30.33 "Hg3 mi
1:50 pm39 °FFog.3 mph93%30.36 "Hg2 mi
1:26 pm37 °FLight fog.2 mph100%30.36 "Hg1 mi
12:50 pm36 °FFog.1 mph100%30.36 "Hg0 mi
12:11 pm34 °FFog.1 mph100%30.36 "Hg1 mi
10:56 am30 °FIce fog.No wind100%30.39 "Hg1 mi
10:30 am30 °FFog.No wind100%30.39 "Hg1 mi
9:50 am28 °FIce fog.No wind100%30.36 "Hg1 mi
8:50 am27 °FIce fog.No wind100%30.36 "Hg0 mi
7:50 am27 °FIce fog.No wind100%30.36 "Hg0 mi
6:50 am27 °FIce fog.No wind100%30.33 "Hg0 mi
5:50 am28 °FIce fog.No wind100%30.33 "Hg0 mi
4:50 am27 °FIce fog.No wind100%30.33 "Hg0 mi
3:50 am27 °FIce fog.No wind100%30.33 "Hg0 mi
2:50 am28 °FIce fog.No wind100%30.33 "Hg0 mi
1:50 am28 °FIce fog.1 mph100%30.33 "Hg0 mi
12:50 am30 °FIce fog.1 mph100%30.33 "Hg0 mi
11:50 pm
Mon, Jan 23
30 °FIce fog.1 mph100%30.33 "Hg0 mi
10:50 pm34 °FLow clouds.1 mph93%30.33 "Hg0 mi
9:50 pm34 °FLow clouds.1 mph100%30.36 "Hg0 mi
Weather by CustomWeather, © 2017

See weather overviewHow to use our weather pages